Cape Girardeau, MO

4:50 AM CST on December 10, 2019 (GMT -0600)
Cape Girardeau Regional

Weather History for KCGI - October, 2019

Change the Weather History Date:

Thursday, October 24, 2019

  Actual Average Record
Temperature  
Mean Temperature 56 °F 55 °F  
Max Temperature 64 °F 68 °F 84 °F (2000)
Min Temperature 48 °F 43 °F 23 °F (1981)
Degree Days  
Heating Degree Days 9 10  
Month to date heating degree days 158 177  
Since 1 July heating degree days 158 226  
Cooling Degree Days 0 0  
Month to date cooling degree days 51 29  
Year to date cooling degree days 1775 1451  
Growing Degree Days 7 (Base 50)    
Moisture  
Dew Point 45 °F    
Average Humidity 70    
Maximum Humidity 83    
Minimum Humidity 56    
Precipitation  
Precipitation T in 0.12 in 0.66 in (1967)
Month to date precipitation 3.11 2.89  
Year to date precipitation 50.78 37.22  
Sea Level Pressure  
Sea Level Pressure 30.23 in    
Wind  
Wind Speed 8 mph (NNE)    
Max Wind Speed 16 mph    
Max Gust Speed 21 mph    
Visibility 10 miles    
Events      
T = Trace of Precipitation, MM = Missing Value Source: NWS Daily Summary

Daily Weather History Graph

Daily Weather History Graph

Search for Another Location

Airport or City:

Astronomy

Oct. 24, 2019 Rise Set
Actual Time 7:14 AM CDT 6:09 PM CDT
Civil Twilight 6:47 AM CDT 6:36 PM CDT
Nautical Twilight 6:17 AM CDT 7:06 PM CDT
Astronomical Twilight 5:47 AM CDT 7:37 PM CDT
Moon 2:52 AM CDT (10/24) 4:30 PM CDT (10/24)
Length of Visible Light 11h 48m
Length of Day
10h 55m
Waning Crescent, 16% of the Moon is Illuminated
Oct 24
Waning Crescent
Oct 27
New
Nov 4
First Quarter
Nov 12
Full
Nov 19
Last Quarter

Hourly Weather History & Observations

Time (CDT) Temp. Dew Point Humidity Pressure Visibility Wind Dir Wind Speed Gust Speed Precip Events Conditions
12:53 AM 55.0 °F 43.0 °F 64% 30.13 in 10.0 mi SSW 6.9 mph - N/A   Clear
1:53 AM 52.0 °F 43.0 °F 71% 30.14 in 10.0 mi SW 3.5 mph - N/A   Clear
2:53 AM 53.1 °F 43.0 °F 69% 30.14 in 10.0 mi SSW 5.8 mph - N/A   Overcast
3:53 AM 51.1 °F 44.1 °F 77% 30.14 in 10.0 mi SE 4.6 mph - N/A   Overcast
4:53 AM 50.0 °F 43.0 °F 77% 30.16 in 10.0 mi Calm Calm - N/A   Overcast
5:53 AM 50.0 °F 44.1 °F 80% 30.18 in 10.0 mi ESE 3.5 mph - N/A   Overcast
6:53 AM 50.0 °F 45.0 °F 83% 30.20 in 10.0 mi NNW 5.8 mph - N/A   Overcast
7:53 AM 50.0 °F 45.0 °F 83% 30.22 in 10.0 mi Calm Calm - N/A   Clear
8:53 AM 55.0 °F 46.0 °F 72% 30.24 in 10.0 mi Calm Calm - N/A   Mostly Cloudy
9:53 AM 60.1 °F 46.9 °F 62% 30.25 in 10.0 mi Variable 5.8 mph - N/A   Mostly Cloudy
10:53 AM 61.0 °F 46.9 °F 60% 30.25 in 10.0 mi NE 9.2 mph - N/A   Clear
11:53 AM 64.0 °F 48.9 °F 58% 30.24 in 10.0 mi NNE 10.4 mph - N/A   Clear
12:53 PM 62.1 °F 48.0 °F 60% 30.23 in 10.0 mi North 13.8 mph - N/A   Clear
1:53 PM 59.0 °F 46.9 °F 64% 30.24 in 10.0 mi North 11.5 mph - N/A   Scattered Clouds
2:53 PM 55.9 °F 46.0 °F 69% 30.24 in 10.0 mi NNW 16.1 mph - N/A   Overcast
3:53 PM 55.0 °F 46.0 °F 72% 30.25 in 10.0 mi North 11.5 mph - N/A   Overcast
4:53 PM 53.1 °F 46.0 °F 77% 30.27 in 10.0 mi North 11.5 mph - N/A   Overcast
5:53 PM 53.1 °F 46.0 °F 77% 30.25 in 10.0 mi NNE 10.4 mph - N/A   Overcast
6:53 PM 52.0 °F 46.0 °F 80% 30.24 in 10.0 mi NNE 11.5 mph - N/A   Overcast
7:53 PM 51.1 °F 45.0 °F 80% 30.28 in 10.0 mi North 11.5 mph - N/A   Overcast
8:53 PM 51.1 °F 45.0 °F 80% 30.27 in 10.0 mi NNE 11.5 mph - N/A   Overcast
9:53 PM 50.0 °F 45.0 °F 83% 30.30 in 10.0 mi NNE 8.1 mph - N/A   Overcast
10:18 PM 50.0 °F 45.0 °F 83% 30.31 in 10.0 mi North 6.9 mph - N/A   Overcast
10:42 PM 50.0 °F 45.0 °F 83% 30.31 in 10.0 mi North 3.5 mph - N/A   Overcast
10:53 PM 50.0 °F 45.0 °F 83% 30.31 in 10.0 mi North 6.9 mph - N/A   Overcast
11:53 PM 50.0 °F 45.0 °F 83% 30.29 in 10.0 mi North 10.4 mph - 0.00 in   Overcast